FW3737 Weather Reports


Display with metric or nautical units.
time (UTC)temp
F
wind
direction
speed
MPH
gust
MPH
rain 1hr
in
rain 24hr
in
rain mn
in
humidity
%
barometer
mb
20260505024648 75 345 0.0 0.0 0.00 0.00 0.00 56 1002.3
20260505023045 76 345 0.0 0.0 0.00 0.00 0.00 55 1002.0
20260505021542 76 345 0.0 0.0 0.00 0.00 0.00 55 1001.8
20260505020040 77 345 0.0 0.0 0.00 0.00 0.00 54 1001.6
20260505014541 77 344 0.0 0.0 0.00 0.00 0.00 54 1001.2
20260505013040 78 344 0.0 0.0 0.00 0.00 0.00 53 1000.8
20260505011639 79 345 0.0 0.0 0.00 0.00 0.00 52 1000.8
20260505010043 79 345 0.0 0.0 0.00 0.00 0.00 52 1000.7
20260505004541 80 344 0.0 0.0 0.00 0.00 0.00 52 1000.6
20260505003039 80 344 0.0 0.0 0.00 0.00 0.00 52 1000.6
20260505001637 78 0.0 6.0 0.00 0.00 0.00 62 1000.6
20260505000037 78 1.0 6.0 0.00 0.00 0.00 61 1000.6
20260504234536 78 1.0 11.0 0.00 0.00 0.00 62 1000.6
20260504233041 79 5.0 13.0 0.00 0.00 0.00 60 1000.7
20260504231635 78 1.0 11.0 0.00 0.00 0.00 61 1000.7
20260504230036 78 2.0 11.0 0.00 0.00 0.00 59 1000.6
20260504224534 79 10.0 19.0 0.00 0.00 0.00 59 1000.5
20260504223034 79 8.0 17.0 0.00 0.00 0.00 57 1000.5
20260504221633 79 5.0 19.0 0.00 0.00 0.00 60 1000.7
20260504220035 80 11.0 20.0 0.00 0.00 0.00 58 1000.6
20260504214544 79 10.0 21.0 0.00 0.00 0.00 57 1000.7
20260504213036 80 2.0 17.0 0.00 0.00 0.00 60 1000.7
20260504211630 79 14.0 22.0 0.00 0.00 0.00 58 1000.8
20260504210029 79 18.0 25.0 0.00 0.00 0.00 56 1000.8
20260504204528 79 9.0 22.0 0.00 0.00 0.00 58 1000.9
20260504203025 79 16.0 26.0 0.00 0.00 0.00 59 1001.2
20260504201623 78 17.0 24.0 0.00 0.00 0.00 57 1001.4
20260504200035 78 13.0 24.0 0.00 0.00 0.00 58 1001.4
20260504194522 77 9.0 21.0 0.00 0.00 0.00 60 1001.6
20260504193021 76 8.0 27.0 0.00 0.00 0.00 61 1001.8
20260504191619 77 9.0 21.0 0.00 0.00 0.00 60 1001.7
20260504190019 77 14.0 26.0 0.00 0.00 0.00 58 1001.9
20260504184517 77 8.0 22.0 0.00 0.00 0.00 60 1001.8
20260504183032 77 11.0 23.0 0.00 0.00 0.00 59 1002.0
20260504181615 77 10.0 23.0 0.00 0.00 0.00 60 1002.1
20260504180017 77 11.0 18.0 0.00 0.00 0.00 58 1002.1
20260504174515 76 13.0 22.0 0.00 0.00 0.00 58 1002.3
20260504173009 75 9.0 25.0 0.00 0.00 0.00 62 1002.4
20260504171606 75 6.0 17.0 0.00 0.00 0.00 61 1002.6
20260504081510 0 0.0 0.0 0.00 0.00 0.00 1005.9
20260504050020 0 0.0 0.0 0.00 0.00 0.00 1006.9
20260504044522 0 0.0 0.0 0.00 0.00 0.00 1006.9
20260504043013 0 0.0 0.0 0.00 0.00 0.00 1006.9
20260504041508 0 0.0 0.0 0.00 0.00 0.00 1007.1
20260504040006 0 0.0 0.0 0.00 0.00 0.00 1007.2
20260504034502 0 0.0 0.0 0.00 0.00 0.00 1007.4
20260504033127 0 0.0 0.0 0.00 0.00 0.00 1007.6
20260504031557 70 345 0.0 0.0 0.00 0.00 0.00 52 1007.7
20260504030049 71 344 0.0 0.0 0.00 0.00 0.00 51 1007.7